TimeCEST,TemperatureF,Dew PointF,Humidity,Sea Level PressureIn,VisibilityMPH,Wind Direction,Wind SpeedMPH,Gust SpeedMPH,PrecipitationIn,Events,Conditions,WindDirDegrees,DateUTC
2:00 AM,65,60,80,29.73,,ENE,3.5,,,,,60,2012-10-15 00:00:00
5:00 AM,68.0,62.6,83,29.71,-9999.0,SW,9.2,-,N/A,,Clear,230,2012-10-15 03:00:00
5:30 AM,66.2,62.6,88,29.71,-9999.0,WSW,6.9,-,N/A,,Clear,250,2012-10-15 03:30:00
6:00 AM,68.0,64.4,88,29.71,-9999.0,WSW,6.9,-,N/A,,Clear,240,2012-10-15 04:00:00
6:30 AM,66.2,62.6,88,29.71,-9999.0,NNE,3.5,-,N/A,,Clear,30,2012-10-15 04:30:00
7:00 AM,64.4,62.6,94,29.71,-9999.0,ENE,6.9,-,N/A,,Clear,70,2012-10-15 05:00:00
7:30 AM,64.4,62.6,94,29.71,-9999.0,Variable,2.3,-,N/A,,Clear,0,2012-10-15 05:30:00
8:00 AM,64,59,78,29.75,12,ESE,4.6,,,,Scattered Clouds,120,2012-10-15 06:00:00
8:00 AM,66.2,62.6,88,29.74,-9999.0,ESE,4.6,-,N/A,,Clear,120,2012-10-15 06:00:00
8:30 AM,64.4,62.6,94,29.74,-9999.0,East,4.6,-,N/A,,Clear,90,2012-10-15 06:30:00
9:00 AM,66.2,64.4,94,29.77,-9999.0,Variable,2.3,-,N/A,,Clear,0,2012-10-15 07:00:00
9:30 AM,68.0,64.4,88,29.77,-9999.0,Variable,1.2,-,N/A,,Clear,0,2012-10-15 07:30:00
10:00 AM,69.8,62.6,78,29.80,-9999.0,Variable,2.3,-,N/A,,Clear,0,2012-10-15 08:00:00
10:30 AM,71.6,62.6,73,29.80,6.2,Variable,1.2,-,N/A,,Partly Cloudy,0,2012-10-15 08:30:00
11:00 AM,73.4,60.8,65,29.80,6.2,ENE,8.1,-,N/A,,Partly Cloudy,70,2012-10-15 09:00:00
11:30 AM,75.2,59.0,57,29.80,6.2,ESE,8.1,-,N/A,,Partly Cloudy,110,2012-10-15 09:30:00
12:00 PM,71.6,64.4,78,29.83,6.2,SSE,9.2,-,N/A,,Partly Cloudy,160,2012-10-15 10:00:00
12:30 PM,73.4,60.8,65,29.83,6.2,SSE,8.1,-,N/A,,Scattered Clouds,150,2012-10-15 10:30:00
1:00 PM,73.4,60.8,65,29.83,6.2,SSE,8.1,-,N/A,,Scattered Clouds,160,2012-10-15 11:00:00
1:30 PM,73.4,60.8,65,29.83,6.2,South,11.5,-,N/A,,Partly Cloudy,170,2012-10-15 11:30:00
2:00 PM,73,59,53,29.86,19,South,11.5,,,,Scattered Clouds,180,2012-10-15 12:00:00
2:00 PM,73.4,60.8,65,29.86,6.2,South,10.4,-,N/A,,Partly Cloudy,180,2012-10-15 12:00:00
2:30 PM,71.6,60.8,69,29.86,6.2,South,10.4,-,N/A,,Partly Cloudy,180,2012-10-15 12:30:00
3:00 PM,71.6,60.8,69,29.86,6.2,South,11.5,-,N/A,,Partly Cloudy,190,2012-10-15 13:00:00
3:30 PM,71.6,60.8,69,29.86,6.2,South,11.5,-,N/A,,Partly Cloudy,190,2012-10-15 13:30:00
4:00 PM,71.6,60.8,69,29.86,6.2,South,11.5,-,N/A,,Partly Cloudy,190,2012-10-15 14:00:00
4:30 PM,73.4,60.8,65,29.89,6.2,SSW,10.4,-,N/A,,Partly Cloudy,200,2012-10-15 14:30:00
5:00 PM,69.8,59.0,68,29.89,6.2,SSW,8.1,-,N/A,,Scattered Clouds,210,2012-10-15 15:00:00
5:30 PM,69.8,59.0,68,29.89,6.2,South,8.1,-,N/A,,Scattered Clouds,180,2012-10-15 15:30:00
6:00 PM,69.8,59.0,68,29.92,6.2,SSW,6.9,-,N/A,,Scattered Clouds,210,2012-10-15 16:00:00
6:30 PM,69.8,59.0,68,29.92,6.2,SSW,5.8,-,N/A,,Scattered Clouds,210,2012-10-15 16:30:00
7:00 PM,69.8,59.0,68,29.92,6.2,Variable,2.3,-,N/A,,Scattered Clouds,0,2012-10-15 17:00:00
8:00 PM,67,56,60,29.96,19,Calm,Calm,,,,Scattered Clouds,,2012-10-15 18:00:00
8:00 PM,68.0,59.0,73,29.95,-9999.0,Calm,Calm,-,N/A,,Clear,0,2012-10-15 18:00:00
8:30 PM,68.0,59.0,73,29.95,-9999.0,Variable,1.2,-,N/A,,Clear,0,2012-10-15 18:30:00
9:00 PM,68.0,59.0,73,29.98,-9999.0,Calm,Calm,-,N/A,,Clear,0,2012-10-15 19:00:00
9:30 PM,66.2,57.2,73,29.98,-9999.0,Variable,1.2,-,N/A,,Clear,0,2012-10-15 19:30:00
10:00 PM,66.2,55.4,68,29.98,-9999.0,NNE,3.5,-,N/A,,Clear,20,2012-10-15 20:00:00
10:30 PM,66.2,53.6,64,30.01,-9999.0,NNE,4.6,-,N/A,,Clear,30,2012-10-15 20:30:00